Location: *
(50.2903°S, 172.5375°W)
Time: 03:27:20
(UTC+00:00)

Resurs 1-4 Rocket - Pass Details

Date: 25 February 2020
Orbit: 800 x 814 km, 98.6° (Epoch: 04 April)

Event Time Altitude Azimuth Distance (km) Brightness Sun altitude
Exits shadow 12:55:04 34° 244° (WSW) 1,319 3.2 -28.5°
Drops below altitude 10° 12:58:46 10° 208° (SSW) 2,420 5.0 -28.3°
Sets 13:01:17 0° 200° (SSW) 3,357 6.0 -28.2°
